Other Public Products
Issued by NWS Grand Forks, ND

Home | Current Version | Previous Version | Text Only | Print | Product List | Glossary On
Versions: 1 2 3 4 5 6 7 8 9 10 11 12 13 14 15 16 17 18 19 20 21 22 23 24 25 26 27 28 29 30 31 32 33 34 35 36 37 38 39 40 41 42 43 44 45 46 47 48 49 50
000
FPUS83 KFGF 301431
OPUFGF
PRAIRIE TO PINES WEATHER ROUNDUP
NATIONAL WEATHER SERVICE EASTERN NORTH DAKOTA/GRAND FORKS ND
900 AM CDT THU JUL 30 2015

 **SATELLITE DATA USED TO AUGMENT SKY COVER AT AUTOMATED STATIONS**
 *****  WEATHER ACROSS EASTERN NORTH DAKOTA  *****

CITY           SKY/WX    TMP DP  RH WIND       PRES   REMARKS
GRAND FORKS    PTSUNNY   68  56  65 W10       30.00R
GRAND FORKS AF PTSUNNY   68  56  66 NW9       30.01S
GRAND CITY NWS   N/A     66 N/A N/A W14         N/A
BUXTON         NOT AVBL
DEVILS LAKE    MOSUNNY   70  54  56 NW14G20   30.04F
FARGO          MOSUNNY   70  57  63 W12       30.04R
WAHPETON ARPT  SUNNY     68  54  60 NW13      30.08R
$$

 *****  WEATHER ACROSS CENTRAL AND WESTERN NORTH DAKOTA  *****

CITY           SKY/WX    TMP DP  RH WIND       PRES   REMARKS
JAMESTOWN      SUNNY     68  56  65 NW9       30.11R
BISMARCK       SUNNY     65  50  58 W7        30.15S
MINOT          SUNNY     69  51  52 W15       30.11R
MINOT AFB      SUNNY     69  57  65 NW14      30.10R
GARRISON         N/A     63  55  75 W6        30.14R
WILLISTON      SUNNY     64  54  69 NE5       30.18R
DICKINSON      SUNNY     65  48  54 W10       30.17S
HETTINGER      SUNNY     65  49  56 NW5       30.21S
$$

 *****  OTHER OBSERVATIONS NORTHEAST NORTH DAKOTA  *****

CITY           SKY/WX    TMP DP  RH WIND       PRES   REMARKS
WALHALLA       FAIR      68  57  68 MISG      29.97S
LANGDON        FAIR      68  55  64 NW15G22   30.03R
CAVALIER       FAIR      70  57  64 W12G18    29.97S
GRAFTON        FAIR      70  57  64 W15G22    30.00R
CANDO          PTSUNNY   66  57  72 W12       30.06R
FORT TOTTEN    NOT AVBL
ROLLA          FAIR      66  54  63 NW16G22   30.06S
RUGBY          NOT AVBL
 ***** THE ABOVE OBSERVATIONS ARE NON NWS ARE NOT QUALITY
        CONTROLLED AND MAY MIS-REPORT RAIN FOR SNOW...
$$

 *****  OTHER OBSERVATIONS SOUTHEAST NORTH DAKOTA *****

CITY           SKY/WX    TMP DP  RH WIND       PRES   REMARKS
COOPERSTOWN    NOT AVBL
VALLEY CITY    FAIR      70  55  60 NW14      30.10R
OAKES            N/A     70  57  64 W10       30.12R
GWINNER        FAIR      70  57  64 W7        30.11R
SHEYENNE NWR     N/A     70  56  61 NW7       29.95S
BUFFALO        NOT AVBL
WYNDMERE       NOT AVBL
 ***** THE ABOVE OBSERVATIONS ARE NON NWS ARE NOT QUALITY
       CONTROLLED AND MAY MIS-REPORT RAIN FOR SNOW...
$$

  *****  WEATHER ACROSS NORTHERN MINNESOTA  *****

CITY           SKY/WX    TMP DP  RH WIND       PRES   REMARKS
FLAG ISLAND    PTSUNNY   66  57  72 W3        29.90S
WARROAD        PTSUNNY   64  61  88 SW8       29.94R
ROSEAU         PTSUNNY   66  61  82 W8        29.94S
HALLOCK        MOSUNNY   66  59  77 W9        29.96R
THF RVR FALLS  MOSUNNY   66  57  72 W14       30.00R
HALSTAD        NOT AVBL
FOSSTON        MOSUNNY   66  59  77 W8        30.02S
BAUDETTE       LGT RAIN  60  57  89 SW7       29.93R
WASKISH        MOSUNNY   68  61  77 SW9       29.96R
CROOKSTON      MOSUNNY   70  57  64 W15       30.02R
$$
  *****  WEATHER ACROSS CENTRAL AND WEST MINNESOTA  *****

CITY           SKY/WX    TMP DP  RH WIND       PRES   REMARKS
BEMIDJI        MOSUNNY   68  58  70 W12       30.00S
PARK RAPIDS    SUNNY     69  57  65 W14       30.02S
WADENA         SUNNY     70  57  64 W7        30.04R
DETROIT LAKES  SUNNY     70  55  60 NW10      30.06R
MOORHEAD       SUNNY     70  57  64 NW10      30.06R
FERGUS FALLS   SUNNY     66  57  72 W7        30.07R
ELBOW LAKE     FAIR      66  58  73 NW8       30.07S
MORRIS MN      SUNNY     73  59  60 W9        30.08R
STAPLES        SUNNY     70  57  64 W10       30.04R
WHEATON        SUNNY     72  55  56 W8        30.09S
$$
  *****  WEATHER ELSEWHERE ACROSS MINNESOTA  *****

CITY           SKY/WX    TMP DP  RH WIND       PRES   REMARKS
DULUTH         MOSUNNY   71  57  61 W14       29.96R
INTRNTL FALLS  MOSUNNY   65  57  75 W7        29.92S
ELY            SUNNY     66  54  63 W12       29.92S
CLOQUET        SUNNY     72  55  56 W7G17     29.97S
BRAINERD       SUNNY     69  57  65 W8G18     30.01S
HIBBING        SUNNY     69  57  65 W8        29.96R
ALEXANDRIA     SUNNY     68  56  65 W12       30.08S
SAINT CLOUD    SUNNY     71  56  58 W8        30.04R
MINNEAPOLIS    SUNNY     74  55  51 W10       30.03F
$$

  *****  WEATHER ACROSS SOUTH DAKOTA  *****

CITY           SKY/WX    TMP DP  RH WIND       PRES   REMARKS
SIOUX FALLS    MOSUNNY   71  58  63 SW7       30.14R
BROOKINGS      SUNNY     68  57  68 NW5       30.16S
WATERTOWN      SUNNY     69  57  65 S5        30.14R
HURON          SUNNY     69  56  62 CALM      30.13S
SISSETON         N/A     73  59  61 N6        30.08R
ABERDEEN       SUNNY     66  57  72 CALM      30.12R
MITCHELL       SUNNY     69  59  70 NW5       30.15R
PIERRE         SUNNY     68  54  60 CALM      30.15R
MOBRIDGE       SUNNY     68  59  73 CALM      30.13S
RAPID CITY     SUNNY     68  47  46 W8        30.25R
$$

  *****  SOME WEATHER IN NEARBY STATES *****

CITY           SKY/WX    TMP DP  RH WIND       PRES   REMARKS
GLASGOW MT     SUNNY     62  54  74 CALM      30.19R
GREAT FALLS MT SUNNY     62  43  49 SW12      30.28S
CHEYENNE WY    SUNNY     66  46  48 W8        30.39R
SCOTTSBLUFF NE SUNNY     67  54  63 NE5       30.30R
OMAHA NE       MOSUNNY   74  60  61 SW3       30.20R
DES MOINES IA  SUNNY     75  59  57 W8        30.15R
DAVENPORT IA   SUNNY     72  63  73 W7        30.12R
CHICAGO IL     SUNNY     75  59  57 W8        30.06R
EAU CLAIRE WI  SUNNY     70  57  63 W14       30.01S
LA CROSSE WI   SUNNY     76  56  49 W7        30.05R
$$

  *****  SOME NATIONAL WEATHER *****

CITY           SKY/WX    TMP DP  RH WIND       PRES   REMARKS
LA GUARDIA NY  CLOUDY    81  72  74 SW8       29.89F
RALEIGH NC     MOSUNNY   84  70  62 SW6       29.98S
ATLANTA GA     PTSUNNY   83  73  72 CALM      30.01S
NEW ORLEANS LA PTSUNNY   84  75  74 N12       30.02R HX  92
OKLAHOMA CITY  MOSUNNY   83  74  74 SE5       30.15R
ALBUQUERQUE NM CLOUDY    67  59  75 CALM      30.39R
SALT LAKE CITY MOSUNNY   65  36  34 SE7       30.30R
LOS ANGELES CA MOSUNNY   68  64  87 SW6       29.99R
BOISE ID       SUNNY     66  40  38 CALM      30.23R
SEATTLE WA     SUNNY     67  54  63 N5        30.11R
$$

*** WEATHER ACROSS MANITOBA...SASKATCHEWAN AND ONTARIO ***
                ***ONTARIO***

CITY           SKY/WX    TMP DP  RH WIND       PRES   REMARKS
GERALDTON      CLOUDY    59  54  82 W13G24    29.65R
THUNDER BAY    MOSUNNY   68  54  60 NW24G33   29.79R
SIOUX LOOKOUT  MOSUNNY   63  55  77 W10G20    29.84R
TORONTO        MOSUNNY   81  59  47 W14       29.85S
BIG TROUT LK   LGT RAIN  55  54  94 NW20G39   29.51R
PICKLE LAKE    CLOUDY    59  52  77 W15G24    29.69R
DRYDEN         MOSUNNY   63  54  72 W13       29.87S
KENORA         MOSUNNY   63  57  82 W9        29.90S
$$
                *** MANITOBA***

CITY           SKY/WX    TMP DP  RH WIND       PRES   REMARKS
BRANDON        MOSUNNY   64  57  77 NW15      30.01R
DAUPHIN        SUNNY     64  57  77 W15G22    29.93F
ISLAND LAKE    PTSUNNY   63  55  77 NE9       29.73R
PILOT MOUND      N/A     64  54  68 W9          N/A
THE PAS        PTSUNNY   64  57  77 W9        29.85S
THOMPSON       PTSUNNY   59  55  88 NW10      29.79R
WINNIPEG       MOSUNNY   64  59  82 W15       29.91F
LYNN LAKE        N/A    N/A N/A N/A MISG        N/A
CHURCHILL      CLOUDY    52  52 100 NW18G24   29.64S FOG
GILLAM         PTSUNNY   57  54  88 N16G24    29.67S
$$
                ***SASKATCHEWAN***

CITY           SKY/WX    TMP DP  RH WIND       PRES   REMARKS
ESTEVAN        SUNNY     63  54  72 NW14      30.13R
KINDERSLEY     PTSUNNY   55  54  94 SW2       30.19S
LLOYDMINSTER   MOSUNNY   59  46  63 W13       30.14R
PRINCE ALBERT  MOSUNNY   63  50  63 W16       30.02R
REGINA         MOSUNNY   61  55  82 W9        30.14R



USA.gov is the U.S. government's official web portal to all federal, state and local government web resources and services.